Regional Weather Roundup
Issued by NWS Huntsville, AL

Current Version | Previous Version | Graphics & Text | Print | Product List | Glossary On
Versions: 1 2 3 4 5 6 7 8 9 10 11 12 13 14 15 16 17 18 19 20 21 22 23 24 25 26 27 28 29 30 31 32 33 34 35 36 37 38 39 40 41 42 43 44 45 46 47 48 49 50
000
ASUS44 KHUN 062310
RWRHUN

WEATHER ROUNDUP FOR THE TENNESSEE VALLEY
NATIONAL WEATHER SERVICE HUNTSVILLE AL
500 PM CST SAT MAR 06 2021

ALZ001>004-070000-
NORTHWEST ALABAMA

CITY           SKY/WX    TMP DP  RH WIND       PRES   REMARKS
SHOALS AIRPORT CLEAR     57  21  24 NE12G20   30.23S
$$

ALZ005>007-016-070000-
NORTH CENTRAL ALABAMA

CITY           SKY/WX    TMP DP  RH WIND       PRES   REMARKS
CULLMAN AG STN   N/A     54 N/A N/A N7          N/A
DECATUR AP     CLEAR     54  15  21 N17G23    30.24R
HUNTSVILLE AP  CLEAR     54  13  19 N10       30.22S
MERIDIANVILLE  CLEAR     54  14  20 N15       30.22S
VINEMONT AP    FAIR      53   9  17 N6G16     30.23R
$$

ALZ008>010-070000-
NORTHEAST ALABAMA

CITY           SKY/WX    TMP DP  RH WIND       PRES   REMARKS
ALBERTVILLE    CLEAR     54  14  20 N10       30.18S
FORT PAYNE     CLEAR     55  13  18 N10       30.16S
$$

TNZ076-096-097-070000-
SOUTHEASTERN MIDDLE TENNESSEE

CITY           SKY/WX    TMP DP  RH WIND       PRES   REMARKS
FAYETTEVILLE   CLEAR     52  12  20 N14G20    30.24R
TULLAHOMA      CLEAR     50  12  22 N9G16     30.22R
WINCHESTER     CLEAR     52  10  19 NE13G18   30.22R
$$

...SURROUNDING SITES...

CITY           SKY/WX    TMP DP  RH WIND       PRES   REMARKS
ATLANTA        PTCLDY    53  28  38 VRB3      30.16R
ANNISTON       CLEAR     58  29  33 VRB5      30.16S
BIRMINGHAM     CLEAR     57  20  23 NW15      30.20R
CHATTANOOGA    PTCLDY    56  10  16 N14       30.18S
CORINTH        SUNNY     57  23  26 N13G20    30.25S
DALTON         CLEAR     55   1  11 N8        30.19S
GADSDEN        CLEAR     56  19  23 N9        30.18S
GOLDEN TRNGL   SUNNY     58  28  32 N15G24    30.22R
HALEYVILLE     FAIR      53  22  29 VRB7      30.24S
JACKSON TN     SUNNY     55  23  28 N13       30.29S
MEMPHIS        SUNNY     57  23  26 N10G20    30.28S
NASHVILLE      PTCLDY    52  16  24 N9        30.28S
OXFORD MS      SUNNY     57  23  26 N9G17     30.26S
ROME           CLEAR     57  15  19 N12       30.16S
SAVANNAH       CLEAR     55  23  28 NE10G21   30.25R
SELMER         SUNNY     55  23  28 NE10      30.25S
TUPELO         SUNNY     58  24  27 N15       30.24S
TUSCALOOSA     CLEAR     59  17  19 NE17      30.19R
$$





USA.gov is the U.S. government's official web portal to all federal, state and local government web resources and services.